User: anonymous   Login
Location: Newark
(25.3833°N, 97.4000°E)
Time: 03:05:12
(UTC+00:00)
Language:

STRAND 1 - Orbit

View from above orbital plane
View from above orbital plane
View from above satellite
View from above satellite

Ground track
Ground track

The orbit data is extracted from the following two-line orbital elements,

1 39090U 13009E   20058.85144309  .00000014  00000-0  19976-4 0  9994
2 39090  98.4661 265.2423 0008034 251.7435 108.2877 14.35119458366844
Epoch (UTC): 27 February 2020 20:26:04
Eccentricity: 0.0008034
inclination: 98.4661°
perigee height: 769 km
apogee height: 780 km
right ascension of ascending node: 265.2423°
argument of perigee: 251.7435°
revolutions per day: 14.35119458
mean anomaly at epoch: 108.2877°
orbit number at epoch: 36684

The dashed part of the orbit path shows where the satellite is in the earth's shadow,  

DLR